| time (UTC) | temp F | wind direction | speed MPH | gust MPH | rain 1hr in | rain 24hr in | rain mn in | humidity % | barometer mb |
| 20260507062057 | 44 | 0 | 0.0 | 0.0 | 0.00 | 0.24 | 0.02 | 10 | 1016.8 |
| 20260507061057 | 44 | 0 | 0.0 | 0.0 | 0.00 | 0.24 | 0.02 | 10 | 1016.8 |
| 20260507054056 | 43 | 0 | 0.0 | 0.0 | 0.00 | 0.26 | 0.02 | 10 | 1016.5 |
| 20260507045056 | 42 | 0 | 0.0 | 0.0 | 0.00 | 0.30 | 0.02 | 10 | 1016.1 |
| 20260507044057 | 42 | 0 | 0.0 | 0.0 | 0.00 | 0.30 | 0.02 | 10 | 1016.0 |
| 20260507040059 | 42 | 0 | 0.0 | 0.0 | 0.00 | 0.30 | 0.02 | 10 | 1015.6 |
| 20260507030053 | 42 | 0 | 0.0 | 0.0 | 0.00 | 0.30 | 0.02 | 10 | 1015.3 |
| 20260507023056 | 42 | 0 | 0.0 | 0.0 | 0.00 | 0.32 | 0.02 | 10 | 1015.1 |
| 20260507021056 | 42 | 0 | 0.0 | 0.0 | 0.00 | 0.34 | 0.02 | 10 | 1015.0 |
| 20260507020056 | 42 | 0 | 0.0 | 0.0 | 0.00 | 0.38 | 0.02 | 10 | 1015.0 |
| 20260507014057 | 42 | 0 | 0.0 | 0.0 | 0.01 | 0.38 | 0.02 | 10 | 1014.9 |
| 20260507011058 | 42 | 0 | 0.0 | 0.0 | 0.01 | 0.38 | 0.02 | 10 | 1014.8 |
| 20260507010059 | 42 | 0 | 0.0 | 0.0 | 0.01 | 0.38 | 0.02 | 10 | 1014.8 |
| 20260507005056 | 43 | 0 | 0.0 | 0.0 | 0.01 | 0.43 | 0.02 | 10 | 1014.7 |
| 20260507004058 | 43 | 0 | 0.0 | 0.0 | 0.00 | 0.42 | 0.01 | 10 | 1014.7 |
| 20260507002057 | 43 | 0 | 0.0 | 0.0 | 0.00 | 0.42 | 0.01 | 10 | 1014.5 |
| 20260507001021 | 43 | 0 | 0.0 | 0.0 | 0.00 | 0.42 | 0.01 | 10 | 1014.5 |
| 20260507000031 | 43 | 0 | 0.0 | 0.0 | 0.00 | 0.42 | 0.01 | 10 | 1014.5 |
| 20260506235100 | 43 | 0 | 0.0 | 0.0 | 0.00 | 0.42 | 0.01 | 10 | 1014.4 |
| 20260506230100 | 43 | 0 | 0.0 | 0.0 | 0.01 | 0.44 | 0.01 | 10 | 1014.1 |
| 20260506220107 | 43 | 0 | 0.0 | 0.0 | 0.01 | 0.46 | 0.01 | 10 | 1013.6 |
| 20260506211103 | 43 | 0 | 0.0 | 0.0 | 0.00 | 0.47 | 0.45 | 10 | 1013.2 |
| 20260506210055 | 43 | 0 | 0.0 | 0.0 | 0.00 | 0.47 | 0.45 | 10 | 1013.2 |
| 20260506202100 | 43 | 0 | 0.0 | 0.0 | 0.00 | 0.52 | 0.45 | 10 | 1013.1 |
| 20260506201108 | 44 | 0 | 0.0 | 0.0 | 0.00 | 0.52 | 0.45 | 10 | 1013.0 |
| 20260506200059 | 44 | 0 | 0.0 | 0.0 | 0.01 | 0.53 | 0.45 | 10 | 1012.9 |
| 20260506193030 | 44 | 0 | 0.0 | 0.0 | 0.02 | 0.56 | 0.45 | 10 | 1012.7 |
| 20260506192103 | 44 | 0 | 0.0 | 0.0 | 0.02 | 0.57 | 0.45 | 10 | 1012.6 |
| 20260506191051 | 44 | 0 | 0.0 | 0.0 | 0.02 | 0.60 | 0.45 | 10 | 1012.6 |
| 20260506190100 | 44 | 0 | 0.0 | 0.0 | 0.02 | 0.60 | 0.45 | 10 | 1012.6 |
| 20260506175059 | 44 | 0 | 0.0 | 0.0 | 0.01 | 0.66 | 0.43 | 10 | 1012.0 |
| 20260506174056 | 44 | 0 | 0.0 | 0.0 | 0.01 | 0.66 | 0.43 | 10 | 1011.9 |
| 20260506173057 | 44 | 0 | 0.0 | 0.0 | 0.00 | 0.69 | 0.43 | 99 | 1011.8 |
| 20260506172102 | 44 | 0 | 0.0 | 0.0 | 0.00 | 0.69 | 0.43 | 99 | 1011.7 |
| 20260506171100 | 44 | 0 | 0.0 | 0.0 | 0.00 | 0.69 | 0.43 | 99 | 1011.6 |
| 20260506164100 | 44 | 0 | 0.0 | 0.0 | 0.00 | 0.72 | 0.43 | 99 | 1011.5 |
| 20260506163056 | 44 | 0 | 0.0 | 0.0 | 0.00 | 0.74 | 0.43 | 99 | 1011.5 |
| 20260506161056 | 44 | 0 | 0.0 | 0.0 | 0.00 | 0.77 | 0.43 | 99 | 1011.5 |
| 20260506155021 | 44 | 0 | 0.0 | 0.0 | 0.00 | 0.79 | 0.43 | 10 | 1011.4 |
| 20260506153056 | 44 | 0 | 0.0 | 0.0 | 0.00 | 0.80 | 0.43 | 10 | 1011.3 |
| 20260506145058 | 45 | 0 | 0.0 | 0.0 | 0.01 | 0.80 | 0.43 | 99 | 1011.2 |
| 20260506143054 | 45 | 0 | 0.0 | 0.0 | 0.03 | 0.80 | 0.43 | 98 | 1011.0 |
| 20260506142055 | 45 | 0 | 0.0 | 0.0 | 0.03 | 0.80 | 0.43 | 98 | 1011.1 |
| 20260506141055 | 45 | 0 | 0.0 | 0.0 | 0.04 | 0.80 | 0.43 | 99 | 1011.1 |
| 20260506140053 | 45 | 0 | 0.0 | 0.0 | 0.05 | 0.80 | 0.43 | 99 | 1011.1 |
| 20260506135057 | 45 | 0 | 0.0 | 0.0 | 0.05 | 0.80 | 0.43 | 99 | 1011.1 |
| 20260506134055 | 45 | 0 | 0.0 | 0.0 | 0.04 | 0.79 | 0.42 | 99 | 1011.0 |
| 20260506133055 | 45 | 0 | 0.0 | 0.0 | 0.03 | 0.78 | 0.41 | 99 | 1010.9 |
| 20260506131056 | 46 | 0 | 0.0 | 0.0 | 0.02 | 0.76 | 0.39 | 99 | 1010.6 |
| 20260506130058 | 46 | 0 | 0.0 | 0.0 | 0.01 | 0.76 | 0.39 | 99 | 1010.5 |
| 20260506123100 | 46 | 0 | 0.0 | 0.0 | 0.01 | 0.77 | 0.38 | 99 | 1010.3 |
| 20260506122058 | 46 | 0 | 0.0 | 0.0 | 0.01 | 0.77 | 0.38 | 99 | 1010.3 |
| 20260506115022 | 46 | 0 | 0.0 | 0.0 | 0.02 | 0.77 | 0.38 | 99 | 1010.1 |
| 20260506111057 | 46 | 0 | 0.0 | 0.0 | 0.04 | 0.76 | 0.37 | 99 | 1009.9 |
| 20260506104055 | 47 | 0 | 0.0 | 0.0 | 0.06 | 0.76 | 0.36 | 99 | 1009.8 |
| 20260506102057 | 47 | 0 | 0.0 | 0.0 | 0.04 | 0.74 | 0.35 | 10 | 1009.6 |
| 20260506101054 | 46 | 0 | 0.0 | 0.0 | 0.05 | 0.74 | 0.35 | 99 | 1009.6 |
| 20260506094054 | 47 | 0 | 0.0 | 0.0 | 0.09 | 0.72 | 0.33 | 10 | 1009.3 |
| 20260506091055 | 47 | 0 | 0.0 | 0.0 | 0.06 | 0.70 | 0.31 | 10 | 1009.2 |
| 20260506090100 | 46 | 0 | 0.0 | 0.0 | 0.06 | 0.69 | 0.30 | 10 | 1009.1 |
| 20260506085045 | 46 | 0 | 0.0 | 0.0 | 0.05 | 0.68 | 0.28 | 10 | 1009.1 |
| 20260506071023 | 45 | 0 | 0.0 | 0.0 | 0.01 | 0.62 | 0.23 | 10 | 1008.6 |